Wind_Speed
35 35 30 25 26 27 26 24 24 23 21 19 16 14 13 14 15 16 18 20 20 21 23 25 30 34 37 40 43 46 49 51 52 53 55 55 55 56 54 55 56 53 50
35 33 28 22 22 23 23 20 18 18 17 16 16 15 15 17 19 20 20 20 22 24 27 32 35 37 41 44 46 48 49 51 52 51 50 49 47 45 45 42 40 40 37
35 31 27 20 20 20 20 16 15 15 15 15 16 18 21 22 22 21 23 25 27 31 33 36 38 43 46 48 49 50 51 51 52 49 46 43 42 38 36 36 34 34 33
34 30 26 19 18 18 18 15 13 14 14 16 18 21 22 23 24 25 26 29 32 36 38 41 46 49 51 50 51 52 52 51 47 43 38 33 29 29 30 28 29 32 32
33 29 25 20 18 18 18 17 14 13 15 17 19 21 23 24 26 28 30 33 35 39 44 49 51 52 53 55 56 55 53 48 41 33 28 25 28 30 32 32 33 32 33
32 30 25 21 19 19 20 19 18 17 17 18 20 22 24 27 29 31 34 37 40 43 47 49 50 52 52 53 56 56 53 47 38 28 24 28 30 34 37 35 33 32 31
30 29 26 22 21 21 22 21 21 20 20 21 23 24 26 30 32 33 35 39 45 47 49 49 50 51 54 55 53 48 46 41 36 30 27 32 35 39 38 34 33 32 27
30 28 26 22 23 22 22 22 22 23 23 24 25 27 29 31 34 39 43 45 49 49 50 50 51 54 56 58 51 41 37 33 30 30 32 35 36 35 31 28 27 24 17
29 28 24 22 22 21 21 22 23 23 23 24 25 27 29 32 34 36 38 41 44 47 50 51 53 58 60 57 48 37 29 27 28 31 34 31 34 29 26 25 21 15 12
28 27 23 21 21 20 21 23 23 24 22 22 22 25 27 29 31 35 39 43 43 45 47 52 57 59 57 49 34 27 25 26 28 30 27 32 32 25 24 19 14 11 9
27 26 23 21 21 22 23 24 23 22 20 20 23 26 27 29 35 37 41 42 44 45 49 52 56 54 42 29 28 27 30 30 30 26 26 28 23 23 20 16 12 9 8
25 23 21 21 21 23 23 23 22 20 18 19 22 25 29 35 38 42 45 45 45 47 49 54 53 37 30 32 31 31 33 30 29 27 27 21 19 20 17 12 9 8 8
24 22 20 20 21 22 22 21 19 18 16 18 22 27 34 38 40 43 42 43 43 46 51 53 42 29 31 29 28 31 34 33 36 24 18 14 16 15 12 9 10 10 9
22 20 20 21 21 21 20 18 17 15 14 18 23 30 35 36 38 40 41 42 43 46 51 49 32 28 28 28 31 33 33 34 35 18 12 14 14 12 10 10 11 11 10
20 19 19 20 20 19 18 16 16 14 16 19 25 30 33 33 36 38 39 39 41 45 47 43 27 28 30 31 32 32 31 31 29 20 17 15 12 10 10 10 11 11 11
18 18 18 19 19 18 16 15 13 14 18 21 28 34 34 36 37 38 38 40 41 45 46 39 25 27 29 29 30 29 29 27 23 19 15 13 11 11 11 11 11 12 12
17 17 18 18 17 15 14 14 14 16 20 23 31 34 35 36 38 37 38 39 41 44 44 36 23 26 29 26 27 28 27 24 17 16 14 12 11 11 12 12 12 11 11
18 18 18 18 18 16 13 15 17 19 23 28 32 31 35 36 37 35 37 39 41 44 42 34 22 24 27 25 26 25 25 21 16 14 13 12 12 12 11 11 11 9 7
18 18 18 18 17 15 14 17 21 24 28 31 31 32 34 36 36 36 38 38 41 44 41 32 21 23 25 24 24 22 23 16 14 13 13 13 12 12 12 12 11 10 9
18 18 18 18 17 15 16 18 21 29 32 33 32 34 37 34 35 36 37 40 43 44 37 30 19 21 22 22 20 20 22 12 13 11 13 15 14 14 14 13 12 11 9
19 19 18 17 17 15 16 19 24 29 31 32 30 32 34 32 35 37 38 41 43 39 33 26 16 19 20 18 18 17 20 13 10 10 9 11 13 13 15 14 13 12 10
20 20 17 16 15 15 17 21 25 28 28 29 31 33 32 31 34 36 38 41 39 35 30 23 14 17 18 14 15 15 16 16 12 11 7 7 12 11 14 14 13 12 11
19 18 16 15 14 16 20 21 24 24 25 29 31 30 29 31 33 36 40 40 35 33 28 20 13 15 17 12 13 14 15 15 15 11 9 9 11 11 13 14 12 11 11
17 15 12 13 17 19 20 23 22 22 26 28 29 27 30 32 34 38 40 37 34 31 26 17 12 14 14 10 11 14 13 14 14 13 12 11 11 12 14 12 10 10 10
15 13 13 16 17 18 21 19 20 24 27 26 25 26 28 31 36 38 36 33 33 30 24 14 11 14 12 9 10 12 12 13 13 14 12 12 12 13 11 10 12 11 11
14 14 16 15 16 17 16 19 21 25 25 22 25 27 28 33 36 35 33 33 33 29 21 11 10 12 11 8 8 10 11 12 13 13 12 12 12 12 12 13 13 11 11
Wind_Direction
325 328 327 326 331 338 341 350 353 358 1 0 3 6 6 6 3 359 354 348 340 334 328 328 328 328 325 321 317 315 313 310 307 303 299 297 296 295 294 293 292 294 291
324 328 324 321 327 336 339 348 359 4 4 5 4 4 4 3 359 352 343 336 330 329 334 331 328 323 321 321 318 313 310 307 307 306 304 301 299 299 299 298 297 296 294
323 326 321 315 324 331 332 341 350 357 357 360 0 359 359 355 347 338 336 332 332 335 331 327 325 325 324 321 318 317 317 316 314 311 308 305 306 307 306 304 301 298 296
324 325 319 306 317 321 323 332 343 348 351 353 356 350 348 343 336 333 331 335 335 330 328 329 329 327 324 322 320 320 321 319 315 310 308 310 315 318 320 314 310 306 300
321 323 316 302 305 309 307 315 323 331 337 340 339 339 336 334 332 331 333 333 331 333 333 330 329 327 324 324 323 323 322 320 314 305 304 309 310 312 311 307 308 307 304
321 321 316 301 298 301 298 300 307 315 321 324 326 327 326 328 329 332 331 331 334 333 332 331 327 326 326 327 326 326 323 318 312 304 294 303 306 311 312 308 304 305 305
320 319 314 301 300 297 294 295 298 304 309 316 317 319 324 327 328 329 330 335 335 332 331 329 327 326 328 331 327 323 317 313 311 311 305 309 310 313 310 308 304 311 308
319 317 311 305 305 299 293 293 297 297 302 309 316 319 324 327 328 331 338 337 333 331 329 328 329 331 331 330 327 323 313 316 316 316 316 316 318 316 315 313 310 314 306
318 313 308 305 307 302 296 296 295 297 300 305 313 319 322 325 336 336 331 330 329 329 329 330 333 334 333 330 327 328 322 322 322 321 320 324 330 324 327 324 319 318 319
316 311 304 301 305 305 300 299 299 298 301 305 313 317 321 334 327 325 328 331 333 331 332 335 336 337 333 332 338 343 330 330 325 322 322 327 327 327 328 329 328 324 333
316 312 304 299 303 304 302 302 299 299 302 306 310 318 328 326 327 326 333 333 334 334 336 338 340 337 341 351 353 347 336 333 328 327 327 330 331 333 336 336 343 345 351
317 312 306 304 303 303 303 302 301 300 305 313 325 321 319 326 330 334 337 337 336 337 339 342 341 344 354 353 356 349 344 343 338 330 329 331 335 338 342 352 10 14 11
316 313 310 309 305 304 303 302 302 300 310 322 314 319 327 334 337 335 332 333 337 338 342 344 343 350 354 356 354 348 349 347 347 338 337 339 342 349 359 18 24 18 17
315 312 311 310 308 305 304 305 301 301 313 315 322 328 333 332 330 330 333 336 338 342 344 344 342 346 346 349 350 348 350 350 350 349 353 354 1 7 21 23 18 22 23
314 311 311 311 309 307 306 304 296 305 316 324 326 327 326 327 331 333 335 336 341 345 344 343 337 343 342 342 344 348 347 348 353 2 2 7 16 27 28 23 26 29 40
314 312 311 311 310 311 306 302 300 307 310 323 321 324 327 332 335 336 337 340 343 344 344 343 336 340 345 348 350 348 348 348 355 7 15 19 30 34 33 31 34 45 57
315 313 310 309 311 307 299 291 292 304 312 321 323 327 330 336 335 339 339 340 342 343 345 343 335 343 347 350 348 350 351 353 4 15 21 30 37 37 35 37 47 59 72
319 310 312 310 310 310 297 292 299 307 315 320 326 329 331 336 336 338 339 341 341 343 344 343 339 346 348 348 353 357 355 2 16 25 34 37 38 37 34 40 50 61 59
322 313 311 313 310 304 298 299 310 313 317 325 329 329 330 337 336 340 339 341 341 342 344 344 342 345 347 350 356 0 4 16 33 42 47 45 40 35 34 33 31 33 29
323 315 308 310 312 308 300 310 314 315 323 327 330 333 335 339 335 338 338 341 343 343 344 342 339 342 348 355 359 2 7 23 31 50 42 38 37 33 30 30 28 26 24
320 312 306 309 313 311 311 314 313 317 322 325 330 332 336 336 336 338 341 343 342 342 342 341 336 343 351 356 2 6 11 18 13 18 26 29 23 24 22 22 21 18 16
318 310 307 308 317 318 313 313 316 319 324 325 332 336 336 337 338 340 342 341 342 342 343 341 337 346 352 356 2 7 14 16 14 14 11 8 9 15 18 12 10 7 15
320 312 309 314 320 312 315 320 320 324 326 329 333 335 336 337 340 342 341 342 344 344 344 342 342 348 353 357 2 9 12 15 19 13 2 2 6 4 5 5 1 3 13
322 320 326 315 309 316 319 320 324 326 327 332 334 336 337 339 342 343 343 346 348 346 344 344 345 350 354 360 3 9 10 10 15 21 20 11 4 5 2 358 5 14 16
327 325 313 312 318 319 320 322 327 328 332 335 335 339 340 342 344 345 347 350 350 349 347 345 345 352 356 357 3 7 7 9 16 22 16 12 4 0 359 6 13 14 14
323 320 318 321 320 323 325 324 332 331 333 338 336 341 344 345 346 348 350 350 350 350 348 347 346 355 358 356 357 357 4 9 6 9 7 3 4 3 9 7 9 10 6
Height
5769 5764 5758 5753 5749 5744 5739 5733 5728 5723 5718 5715 5712 5710 5707 5705 5702 5700 5697 5695 5693 5690 5688 5684 5678 5672 5667 5662 5654 5647 5640 5633 5626 5617 5608 5600 5592 5584 5577 5568 5561 5557 5551
5764 5758 5754 5750 5746 5742 5738 5732 5728 5724 5720 5716 5713 5710 5707 5704 5700 5698 5695 5693 5689 5686 5682 5676 5671 5666 5659 5652 5644 5637 5629 5620 5612 5603 5592 5583 5575 5569 5562 5556 5550 5544 5538
5759 5754 5750 5746 5743 5739 5736 5731 5727 5723 5720 5716 5713 5709 5706 5702 5699 5696 5692 5689 5684 5679 5675 5669 5664 5657 5649 5641 5632 5622 5612 5602 5593 5585 5576 5568 5561 5556 5550 5544 5539 5534 5528
5754 5750 5745 5742 5739 5736 5733 5729 5725 5722 5719 5716 5712 5708 5704 5701 5698 5694 5689 5684 5679 5673 5668 5661 5653 5645 5636 5627 5618 5609 5599 5589 5579 5570 5563 5557 5552 5546 5542 5537 5531 5524 5520
5749 5745 5740 5737 5734 5732 5730 5727 5723 5720 5717 5713 5710 5706 5702 5699 5694 5690 5684 5679 5674 5667 5658 5650 5642 5632 5622 5612 5603 5595 5585 5576 5567 5560 5554 5550 5544 5539 5534 5528 5523 5518 5511
5744 5739 5735 5732 5730 5727 5725 5723 5721 5717 5714 5710 5706 5703 5699 5695 5691 5685 5680 5673 5667 5659 5651 5643 5633 5623 5614 5603 5590 5579 5569 5562 5556 5551 5546 5542 5536 5531 5525 5519 5513 5508 5503
5739 5733 5730 5727 5725 5722 5720 5718 5716 5714 5710 5707 5703 5699 5694 5689 5685 5680 5674 5667 5658 5651 5643 5634 5625 5615 5604 5593 5580 5569 5557 5549 5543 5541 5537 5532 5527 5520 5514 5509 5502 5498 5492
5733 5729 5725 5722 5719 5717 5715 5713 5711 5708 5705 5702 5698 5694 5689 5685 5678 5672 5664 5657 5650 5641 5633 5625 5615 5604 5593 5581 5570 5560 5549 5541 5536 5532 5528 5523 5517 5510 5504 5499 5494 5490 5486
5728 5723 5720 5717 5714 5712 5710 5708 5705 5702 5700 5697 5693 5689 5685 5679 5673 5667 5662 5655 5646 5636 5625 5616 5606 5593 5580 5570 5558 5551 5543 5536 5531 5526 5520 5515 5509 5502 5497 5493 5488 5485 5482
5722 5718 5715 5712 5710 5708 5705 5703 5701 5697 5695 5692 5689 5686 5681 5675 5670 5665 5658 5649 5640 5630 5619 5608 5596 5584 5570 5559 5552 5545 5539 5534 5528 5523 5516 5510 5504 5498 5493 5489 5485 5482 5480
5716 5713 5710 5708 5705 5703 5700 5698 5695 5693 5690 5687 5684 5680 5676 5673 5666 5659 5650 5641 5632 5622 5612 5602 5589 5576 5566 5557 5550 5543 5536 5530 5523 5517 5512 5506 5500 5495 5490 5486 5483 5481 5478
5711 5708 5705 5703 5701 5698 5695 5693 5690 5688 5685 5683 5679 5675 5671 5666 5658 5649 5640 5631 5623 5614 5605 5594 5582 5572 5564 5556 5549 5541 5534 5526 5519 5512 5507 5502 5498 5493 5489 5485 5483 5480 5478
5706 5704 5701 5699 5697 5693 5691 5688 5686 5683 5681 5679 5676 5671 5665 5658 5650 5642 5635 5628 5618 5609 5598 5587 5577 5569 5561 5554 5547 5539 5532 5523 5515 5508 5503 5500 5496 5492 5488 5486 5483 5481 5479
5702 5699 5697 5694 5692 5689 5686 5684 5681 5680 5678 5676 5671 5666 5660 5654 5647 5639 5630 5622 5613 5603 5593 5582 5573 5567 5559 5552 5545 5537 5529 5521 5514 5506 5503 5499 5495 5491 5489 5487 5484 5482 5480
5698 5695 5693 5690 5688 5685 5682 5680 5678 5676 5674 5671 5666 5662 5657 5651 5643 5634 5626 5618 5609 5600 5590 5579 5571 5564 5557 5550 5542 5535 5529 5522 5514 5508 5503 5499 5495 5493 5491 5488 5486 5483 5481
5694 5691 5689 5686 5683 5681 5678 5675 5674 5672 5671 5667 5662 5657 5650 5644 5636 5628 5621 5612 5604 5595 5586 5576 5568 5562 5556 5548 5541 5534 5528 5521 5514 5509 5504 5501 5497 5495 5493 5490 5487 5485 5484
5689 5687 5685 5683 5680 5677 5674 5672 5671 5669 5667 5664 5657 5650 5644 5638 5630 5623 5615 5608 5600 5592 5582 5573 5566 5560 5553 5547 5540 5534 5527 5521 5515 5510 5506 5503 5500 5497 5495 5492 5490 5488 5487
5686 5683 5681 5679 5676 5673 5670 5668 5666 5666 5663 5659 5653 5646 5639 5633 5625 5619 5611 5604 5596 5587 5578 5569 5562 5557 5551 5546 5540 5534 5527 5520 5515 5511 5508 5505 5503 5500 5497 5495 5493 5491 5489
5682 5679 5677 5675 5672 5669 5667 5665 5662 5659 5657 5653 5647 5641 5635 5628 5620 5614 5607 5600 5592 5583 5573 5565 5559 5555 5550 5544 5539 5533 5527 5522 5517 5514 5511 5508 5505 5503 5500 5498 5495 5493 5492
5678 5675 5672 5670 5668 5666 5664 5662 5659 5653 5650 5645 5641 5635 5628 5622 5615 5610 5603 5595 5585 5576 5568 5562 5557 5553 5548 5544 5539 5533 5528 5523 5520 5517 5514 5511 5508 5505 5502 5500 5497 5495 5493
5673 5670 5668 5667 5665 5663 5661 5660 5655 5650 5645 5640 5637 5632 5625 5619 5612 5605 5598 5589 5581 5573 5566 5560 5555 5552 5547 5543 5539 5534 5529 5525 5522 5519 5516 5513 5510 5508 5505 5502 5499 5497 5494
5669 5665 5664 5663 5662 5660 5658 5655 5651 5647 5642 5636 5632 5627 5621 5615 5609 5602 5594 5586 5578 5570 5563 5557 5553 5550 5546 5542 5538 5534 5531 5527 5523 5520 5518 5515 5513 5510 5507 5504 5501 5498 5495
5665 5662 5661 5660 5659 5656 5653 5651 5647 5643 5639 5634 5629 5624 5618 5612 5606 5599 5591 5582 5574 5566 5560 5555 5552 5549 5545 5542 5538 5535 5532 5528 5525 5522 5519 5517 5514 5511 5508 5505 5502 5500 5497
5661 5659 5659 5657 5654 5652 5650 5647 5643 5640 5636 5631 5626 5620 5614 5609 5602 5595 5587 5578 5571 5563 5557 5553 5551 5548 5544 5541 5539 5536 5533 5529 5527 5523 5520 5518 5515 5512 5509 5506 5504 5501 5498
5659 5656 5654 5652 5651 5649 5646 5642 5640 5636 5632 5627 5622 5618 5612 5605 5599 5591 5583 5576 5569 5562 5556 5552 5550 5547 5544 5541 5539 5536 5534 5531 5528 5525 5522 5519 5516 5513 5511 5508 5505 5502 5499
5656 5653 5650 5650 5647 5645 5642 5639 5637 5633 5629 5625 5619 5614 5609 5603 5595 5588 5581 5574 5567 5560 5554 5551 5549 5546 5543 5541 5539 5537 5535 5532 5529 5526 5523 5520 5517 5515 5512 5509 5506 5503 5501